F8BJE-13 Weather Reports


Display with metric or nautical units.
time (UTC)temp
F
wind
direction
speed
MPH
gust
MPH
rain 1hr
in
rain 24hr
in
rain mn
in
humidity
%
barometer
mb
20260506162736 48 337 0.0 2.0 0.03 0.57 0.57 96 1010.4
20260506155735 47 311 0.0 3.0 0.04 0.57 0.57 95 1010.4
20260506152736 47 219 0.0 3.0 0.14 0.54 0.54 94 1010.2
20260506145735 48 297 0.0 2.0 0.31 0.53 0.53 91 1009.9
20260506142736 49 260 1.0 3.0 0.20 0.40 0.40 85 1010.1
20260506135736 54 247 3.0 4.0 0.01 0.21 0.21 82 1009.5
20260506132735 53 305 3.0 4.0 0.00 0.20 0.20 83 1009.8
20260506125735 53 268 0.0 5.0 0.01 0.21 0.20 85 1009.5
20260506122735 52 138 0.0 8.0 0.01 0.24 0.20 86 1009.6
20260506115736 52 19 2.0 4.0 0.02 0.23 0.18 88 1009.5
20260506112737 51 268 0.0 5.0 0.03 0.23 0.18 88 1009.5
20260506105736 51 332 4.0 6.0 0.03 0.21 0.16 90 1009.6
20260506102737 52 242 1.0 3.0 0.03 0.20 0.15 90 1009.5
20260506095735 51 312 3.0 4.0 0.02 0.17 0.12 90 1009.4
20260506092736 51 214 1.0 3.0 0.05 0.16 0.11 91 1009.1
20260506085735 50 165 0.0 3.0 0.09 0.15 0.10 90 1009.0
20260506082735 50 194 0.0 3.0 0.05 0.11 0.05 89 1008.6
20260506072735 51 159 0.0 2.0 0.00 0.05 0.00 86 1008.1
20260506042735 49 142 0.0 2.0 0.00 0.08 0.00 94 1007.4
20260506035735 49 214 0.0 1.0 0.00 0.08 0.00 93 1007.4
20260506032736 50 285 0.0 2.0 0.00 0.09 0.00 92 1007.4
20260506025735 50 239 0.0 2.0 0.00 0.09 0.00 91 1007.9
20260506022736 50 125 0.0 1.0 0.00 0.12 0.00 90 1008.0
20260506015736 50 342 0.0 2.0 0.00 0.15 0.00 86 1008.2
20260506012735 51 7 2.0 3.0 0.00 0.17 0.00 88 1008.7
20260506005736 51 32 0.0 4.0 0.00 0.20 0.00 88 1008.8
20260506002735 51 19 0.0 1.0 0.00 0.22 0.00 86 1009.0
20260505235736 52 301 0.0 1.0 0.00 0.23 0.00 85 1009.4
20260505232736 52 33 1.0 3.0 0.00 0.23 0.00 84 1009.6
20260505225735 52 146 0.0 3.0 0.00 0.23 0.00 84 1009.4
20260505222735 52 150 1.0 4.0 0.00 0.23 0.00 90 1009.7
20260505215736 52 279 0.0 3.0 0.00 0.23 0.23 93 1009.6
20260505212736 52 0 0.0 0.0 0.00 0.23 0.23 93 1009.5
20260505205735 52 0 0.0 0.0 0.00 0.23 0.23 92 1009.5
20260505202735 52 181 0.0 0.0 0.00 0.23 0.23 91 1009.5
20260505195737 53 0 0.0 0.0 0.00 0.23 0.23 91 1008.9
20260505192736 53 0 0.0 0.0 0.00 0.23 0.23 90 1008.7
20260505185736 53 0 0.0 0.0 0.00 0.23 0.23 89 1008.5
20260505182737 54 350 0.0 2.0 0.00 0.23 0.23 88 1008.5
20260505175736 54 108 0.0 2.0 0.00 0.23 0.23 86 1008.4
20260505172736 55 277 1.0 5.0 0.00 0.23 0.23 84 1008.6
20260505165736 57 259 4.0 6.0 0.00 0.23 0.23 81 1008.5